Regional Weather Roundup
Issued by NWS Sterling, VA

Home | Current Version | Previous Version | Text Only | Print | Product List | Glossary On
Versions: 1 2 3 4 5 6 7 8 9 10 11 12 13 14 15 16 17 18 19 20 21 22 23 24 25 26 27 28 29 30 31 32 33 34 35 36 37 38 39 40 41 42 43 44 45 46 47 48 49 50
000
ASUS41 KLWX 042210
RWRLWX

REGIONAL WEATHER ROUNDUP
NATIONAL WEATHER SERVICE BALTIMORE MD/WASHINGTON DC
600 PM EDT WED MAY 04 2016

Note: "FAIR" indicates few or no clouds below 12,000 feet
with no significant weather and/or obstructions to visibility.
 TC=TEMPERATURE CELSIUS

 * =Non NWS site. Station does not report precipitation (e.g. rain,
    snow, etc.), thunder, or fog.

DCZ001-MDZ009-015-VAZ040>042-051-053>054-042300-
WASHINGTON METRO

CITY           SKY/WX    TMP DP  RH WIND       PRES   REMARKS
WASHINGTON NAT CLOUDY    58  53  84 NE12      29.65S
DULLES         PTSUNNY   60  52  74 E6        29.64S
ANDREWS AFB    CLOUDY    56  52  86 E6        29.64R
FT BELVOIR     CLOUDY    60  53  77 VRB2      29.64R
QUANTICO       PTSUNNY   63  55  75 NE10      29.64R
COLLEGE PARK*  CLOUDY    55  50  82 NE6       29.65S
LEESBURG*      CLOUDY    61  55  82 E5        29.65R
MANASSAS*      CLOUDY    61  55  82 CALM      29.63S
GAITHERSBURG*  CLOUDY    55  48  76 CALM      29.69S

$$

MDZ006>007-011-014-042300-
BALTIMORE METRO

CITY           SKY/WX    TMP DP  RH WIND       PRES   REMARKS
BWI AIRPORT    DRIZZLE   54  52  93 E10       29.66R FOG
MD SCIENCE CTR   N/A     56  51  84 MISG      29.67R
MARTIN STATE   CLOUDY    55  54  94 NE7       29.69R
ANNAPOLIS      CLOUDY    56  51  84 E7        29.66S
FORT MEADE*    CLOUDY    54  50  87 E8        29.69R

$$

MDZ012-015-019>023-042300-
MARYLAND EASTERN SHORE

CITY           SKY/WX    TMP DP  RH WIND       PRES   REMARKS
OCEAN CITY     CLOUDY    52  50  93 NE13G22   29.64F
SALISBURY      CLOUDY    53  52  96 NE10      29.64F FOG
CAMBRIDGE*     CLOUDY    54  52  94 NE5       29.65S
EASTON*        CLOUDY   N/A N/A N/A E7        29.69S HAZE

$$

MDZ017>025-042300-
SOUTHERN MARYLAND

CITY           SKY/WX    TMP DP  RH WIND       PRES   REMARKS
PATUXENT RIVER CLOUDY    56  53  90 NE7       29.65R
ST INIGOES     CLOUDY    57  54  89 NE6       29.64R
LEONARDTOWN*   CLOUDY    54  52  94 NE3       29.66S

$$

MDZ003>005-042300-
NORTH CENTRAL MARYLAND

CITY           SKY/WX    TMP DP  RH WIND       PRES   REMARKS
FREDERICK*     CLOUDY    57  55  94 E8        29.68S
HAGERSTOWN APT LGT RAIN  58  51  78 E10       29.64R
WESTMINSTER*   CLOUDY    57  36  44 E6        29.66R

$$

MDZ501>502-042300-
WESTERN MARYLAND

CITY           SKY/WX    TMP DP  RH WIND       PRES   REMARKS
OAKLAND*       CLOUDY    46  43  87 CALM      29.66S
CUMBERLAND*    MOSUNNY   64  41  42 CALM      29.65S

$$

VAZ025>031-042300-
SHENANDOAH VALLEY

CITY           SKY/WX    TMP DP  RH WIND       PRES   REMARKS
WINCHESTER*    PTSUNNY   59  52  77 N5        29.64R
FRONT ROYAL*   CLOUDY    57  54  88 N3        29.63R
LURAY*         CLOUDY    64  50  59 CALM      29.61S
NEW MARKET*    CLOUDY    64  44  49 CALM      29.60S
STAUNTON*      FAIR      65  43  44 N6        29.62S
WAYNESBORO*    CLOUDY    64  40  40 CALM      29.61S

$$

WVZ021-048>050-054>055-042300-
EASTERN WEST VIRGINIA PANHANDLE

CITY           SKY/WX    TMP DP  RH WIND       PRES   REMARKS
MARTINSBURG    HVY RAIN  54  52  93 CALM      29.64S FOG
PETERSBURG*    CLOUDY    62  48  59 CALM      29.64R

$$

VAZ036>039-050-042300-
CENTRAL FOOTHILLS

CITY           SKY/WX    TMP DP  RH WIND       PRES   REMARKS
CHARLOTTESVILL FAIR      67  51  56 E3        29.60S
CULPEPER*      CLOUDY    59  55  88 CALM      29.63F
ORANGE*        CLOUDY    61  57  88 CALM      29.63S
GORDONSVILLE*  CLOUDY    62  56  81 E6        29.61S
WARRENTON*     LGT RAIN  60  53  77 E6        29.62F

$$

VAZ055>057-042300-
NORTH AND CENTRAL PIEDMONT

CITY           SKY/WX    TMP DP  RH WIND       PRES   REMARKS
FREDERICKSBRG* PTSUNNY   65  57  77 E5        29.62R
STAFFORD*      PTSUNNY   61  53  75 NW7       29.68R

$$

NCZ024-NYZ072-PAZ021-071-VAZ022-071-042300-
OTHER REGIONAL OBSERVATIONS

CITY           SKY/WX    TMP DP  RH WIND       PRES   REMARKS
NEW YORK CITY  CLOUDY    50  46  86 E13       29.74S
PHILADELPHIA   CLOUDY    53  45  74 E12       29.71R
PITTSBURGH     CLOUDY    57  45  64 SE8       29.62S
ROANOKE        PTSUNNY   65  42  43 W10       29.63S
RICHMOND       PTSUNNY   59  57  93 NE6       29.61S
RALEIGH        MOSUNNY   72  50  45 SW6       29.62R

$$

ANZ530>537-042300-
MARINE OBSERVATIONS

STATION/POSITION TIME  TEMP    WIND        PRES
                       AIR SEA DIR/SP/G
                 (UTC) (F)     (DEG/KT/KT) (MB)
THOMAS PT LIGHT  2200   55 58   60/ 10/ 12 1005.5R
BALT KEY BRIDGE  2100   54      60/  8/ 10 1004.3F
COVE POINT       2100   55      60/  8/ 11 1004.4F
LEWISETTA        2100   57 63   30/  6/ 11 1003.3F
SOLOMONS ISLAND  2100   56 61   20/  7/  9   N/A
PINEY POINT      2100           50/  5/  9   N/A

$$




USA.gov is the U.S. government's official web portal to all federal, state and local government web resources and services.